Find Rassvet-2 No. 2

NORAD ID: 59780 Int'l Des: 2024-092 Owner: B1440 Country: RU Constellation: Rassvet operational
LEOCIRCULARRETROGRADESSO

Live Position

Loading 3D Globe...

About Rassvet-2 No. 2

Description loading...

Upcoming Passes

Passes for default location (London). Set your location on the main map for personalized predictions.

Altitude History

Loading altitude history...

Two-Line Element Set

1 59780U 24092H 26106.93977075 .00000088 00000-0 49580-4 0 9994
2 59780 98.6610 226.0654 0012762 34.9802 325.2217 14.31821798100131
Epoch: Apr 16, 2026 • Age: 14 hours

Current Status

Altitude 794.8 km
Velocity 7.46 km/s
Sub-Earth Point 54.71°N, 25.11°E
Launch Date May 16, 2024
Age 1.9 years
Type other

Technical Details

Classification Payload
Mass 120.00 kg
Dry Mass 120.00 kg
Total Mass 120.00 kg
Length 1.20 m
Diameter 0.60 m
Span 5.00 m
Shape Box+2 pan
Manufacturer B1440
Bus Type Rassvet-2
Phase Status In Orbit
Owner/State B1440/RU

Most Searched